User: anonymous   Login
Location: Observatorio Las Palmas
(29.0667°N, 110.9333°W)
Time: 15:59:08
(UTC-07:00)
Language:

Skynet4D Del rocket - Orbit

View from above orbital plane
View from above orbital plane
View from above satellite
View from above satellite

Ground track
Ground track

The orbit data is extracted from the following two-line orbital elements,

1 25135U 98002B   15025.70122269  .00000149  00000-0  25644-4 0  2775
2 25135 026.8866 102.3432 0356403 166.4267 337.0350 13.62282827849319
Epoch (UTC): 25 January 2015 16:49:45
Eccentricity: 0.0356403
inclination: 26.8866°
perigee height: 763 km
apogee height: 1291 km
right ascension of ascending node: 102.3432°
argument of perigee: 166.4267°
revolutions per day: 13.62282827
mean anomaly at epoch: 337.0350°
orbit number at epoch: 84931

The dashed part of the orbit path shows where the satellite is in the earth's shadow,  

DLR